When you browse on this site, cookies collect data to enhance your experience and personalize the content and advertising you see.
Visit our Privacy Policy to learn more. By continuing to use the site, you agree to this use of cookies and data.
  • En España
  • Lista de países
  • Para 7 días
  • Temperatura del agua
  • El tiempo en el mapa
  • Informadores
  • user-avatar
    Iniciar sesión

    Tiempo cada hora Risan

    Hoy, 5 Junio, Viernes

    Tiempo Temperatura Precipitaciones Viento Presión Humedad
    00:00 +15°C° 0 mm 5 mps 750 mmHg 93%
    01:00 +15°C° 0 mm 5 mps 750 mmHg 95%
    02:00 +16°C° 0.1 mm 5 mps 749 mmHg 92%
    03:00 +16°C° 0.1 mm 5 mps 749 mmHg 90%
    04:00 +16°C° 0.1 mm 5 mps 748 mmHg 88%
    05:00 +16°C° 0.3 mm 5 mps 749 mmHg 88%
    06:00 +16°C° 0.3 mm 6 mps 749 mmHg 88%
    07:00 +16°C° 0.3 mm 7 mps 749 mmHg 87%
    08:00 +16°C° 1.1 mm 7 mps 749 mmHg 89%
    09:00 +16°C° 1.1 mm 8 mps 749 mmHg 91%
    10:00 +17°C° 1.1 mm 8 mps 749 mmHg 93%
    11:00 +17°C° 4.8 mm 8 mps 749 mmHg 94%
    12:00 +16°C° 4.8 mm 8 mps 748 mmHg 96%
    13:00 +16°C° 4.8 mm 7 mps 748 mmHg 97%
    14:00 +16°C° 1.4 mm 6 mps 748 mmHg 97%
    15:00 +17°C° 1.4 mm 4 mps 748 mmHg 96%
    16:00 +17°C° 1.4 mm 3 mps 748 mmHg 96%
    17:00 +17°C° 0.2 mm 3 mps 748 mmHg 94%
    18:00 +17°C° 0.2 mm 3 mps 748 mmHg 92%
    19:00 +17°C° 0.2 mm 4 mps 748 mmHg 90%
    20:00 +17°C° 0.1 mm 4 mps 748 mmHg 87%
    21:00 +16°C° 0.1 mm 3 mps 748 mmHg 85%
    22:00 +16°C° 0.1 mm 3 mps 748 mmHg 83%
    23:00 +16°C° 0 mm 3 mps 748 mmHg 81%

    Mañana, 6 Junio, Sábado

    Tiempo Temperatura Precipitaciones Viento Presión Humedad
    00:00 +16°C° 0 mm 3 mps 748 mmHg 80%
    01:00 +15°C° 0 mm 4 mps 747 mmHg 78%
    02:00 +15°C° 0 mm 4 mps 747 mmHg 76%
    03:00 +15°C° 0 mm 4 mps 747 mmHg 75%
    04:00 +15°C° 0 mm 4 mps 747 mmHg 73%
    05:00 +17°C° 0 mm 3 mps 747 mmHg 73%
    06:00 +18°C° 0 mm 3 mps 747 mmHg 73%
    07:00 +20°C° 0 mm 2 mps 748 mmHg 73%
    08:00 +21°C° 0 mm 2 mps 748 mmHg 71%
    09:00 +23°C° 0 mm 2 mps 748 mmHg 69%
    10:00 +25°C° 0 mm 2 mps 748 mmHg 67%
    11:00 +25°C° 0.1 mm 2 mps 748 mmHg 68%
    12:00 +25°C° 0.1 mm 2 mps 748 mmHg 69%
    13:00 +25°C° 0.1 mm 2 mps 747 mmHg 70%
    14:00 +24°C° 0.2 mm 2 mps 747 mmHg 72%
    15:00 +24°C° 0.2 mm 2 mps 747 mmHg 75%
    16:00 +23°C° 0.2 mm 2 mps 747 mmHg 78%
    17:00 +23°C° 0.2 mm 2 mps 747 mmHg 80%
    18:00 +22°C° 0.2 mm 1 mps 748 mmHg 82%
    19:00 +21°C° 0.2 mm 1 mps 748 mmHg 84%
    20:00 +20°C° 0 mm 1 mps 748 mmHg 86%
    21:00 +20°C° 0 mm 1 mps 749 mmHg 87%
    22:00 +17°C° 0 mm 0 mps 749 mmHg 88%
    23:00 +16°C° 0 mm 0 mps 749 mmHg 89%

    Pasado mañana, 7 Junio, Domingo

    Tiempo Temperatura Precipitaciones Viento Presión Humedad
    00:00 +16°C° 0 mm 0 mps 749 mmHg 89%
    01:00 +15°C° 0 mm 0 mps 749 mmHg 90%
    02:00 +16°C° 0 mm 1 mps 749 mmHg 90%
    03:00 +16°C° 0 mm 1 mps 750 mmHg 91%
    04:00 +16°C° 0 mm 2 mps 750 mmHg 91%
    05:00 +17°C° 0 mm 2 mps 750 mmHg 88%
    06:00 +19°C° 0 mm 2 mps 750 mmHg 85%
    07:00 +21°C° 0 mm 2 mps 750 mmHg 81%
    08:00 +23°C° 0 mm 2 mps 750 mmHg 78%
    09:00 +24°C° 0 mm 3 mps 750 mmHg 74%
    10:00 +25°C° 0 mm 3 mps 750 mmHg 71%
    11:00 +25°C° 0.1 mm 3 mps 750 mmHg 71%
    12:00 +25°C° 0.1 mm 3 mps 750 mmHg 72%
    13:00 +26°C° 0.1 mm 2 mps 750 mmHg 73%
    14:00 +25°C° 0.1 mm 2 mps 750 mmHg 72%
    15:00 +25°C° 0.1 mm 2 mps 750 mmHg 72%
    16:00 +25°C° 0.1 mm 2 mps 750 mmHg 72%
    17:00 +24°C° 0 mm 2 mps 750 mmHg 77%
    18:00 +21°C° 0 mm 2 mps 750 mmHg 83%
    19:00 +20°C° 0 mm 2 mps 751 mmHg 88%
    20:00 +19°C° 0 mm 2 mps 751 mmHg 89%
    21:00 +18°C° 0 mm 3 mps 751 mmHg 90%
    22:00 +18°C° 0 mm 3 mps 751 mmHg 91%
    23:00 +18°C° 0 mm 3 mps 751 mmHg 91%

    8 Junio, Lunes

    Tiempo Temperatura Precipitaciones Viento Presión Humedad
    00:00 +18°C° 0 mm 3 mps 751 mmHg 90%
    01:00 +17°C° 0 mm 3 mps 751 mmHg 90%
    02:00 +17°C° 0 mm 3 mps 751 mmHg 90%
    03:00 +17°C° 0 mm 3 mps 750 mmHg 90%
    04:00 +17°C° 0 mm 3 mps 750 mmHg 90%
    05:00 +19°C° 0.1 mm 3 mps 750 mmHg 88%
    06:00 +20°C° 0.1 mm 3 mps 750 mmHg 85%
    07:00 +21°C° 0.1 mm 2 mps 750 mmHg 83%
    08:00 +22°C° 0.4 mm 3 mps 750 mmHg 81%
    09:00 +24°C° 0.4 mm 3 mps 750 mmHg 79%
    10:00 +25°C° 0.4 mm 3 mps 750 mmHg 76%
    11:00 +25°C° 0.7 mm 3 mps 750 mmHg 76%
    12:00 +25°C° 0.7 mm 3 mps 750 mmHg 76%
    13:00 +26°C° 0.7 mm 3 mps 750 mmHg 75%
    14:00 +25°C° 0.6 mm 3 mps 750 mmHg 76%
    15:00 +25°C° 0.6 mm 3 mps 750 mmHg 77%
    16:00 +25°C° 0.6 mm 3 mps 750 mmHg 78%
    17:00 +24°C° 0.2 mm 3 mps 750 mmHg 82%
    18:00 +21°C° 0.2 mm 2 mps 750 mmHg 86%
    19:00 +20°C° 0.2 mm 2 mps 750 mmHg 89%
    20:00 +19°C° 0.1 mm 2 mps 750 mmHg 90%
    21:00 +19°C° 0.1 mm 3 mps 751 mmHg 90%
    22:00 +18°C° 0.1 mm 3 mps 751 mmHg 90%
    23:00 +18°C° 0.5 mm 3 mps 751 mmHg 91%

    9 Junio, Martes

    Tiempo Temperatura Precipitaciones Viento Presión Humedad
    00:00 +18°C° 0.5 mm 3 mps 751 mmHg 91%
    01:00 +17°C° 0.5 mm 3 mps 751 mmHg 91%
    02:00 +17°C° 1 mm 3 mps 751 mmHg 91%
    03:00 +17°C° 1 mm 3 mps 751 mmHg 91%
    04:00 +17°C° 1 mm 3 mps 751 mmHg 92%
    05:00 +18°C° 0.8 mm 3 mps 751 mmHg 90%
    06:00 +20°C° 0.8 mm 3 mps 751 mmHg 89%
    07:00 +21°C° 0.8 mm 2 mps 751 mmHg 88%
    08:00 +23°C° 0.6 mm 2 mps 751 mmHg 85%
    09:00 +24°C° 0.6 mm 2 mps 751 mmHg 82%
    10:00 +25°C° 0.6 mm 2 mps 751 mmHg 80%
    11:00 +26°C° 0.9 mm 2 mps 751 mmHg 78%
    12:00 +26°C° 0.9 mm 2 mps 751 mmHg 77%
    13:00 +26°C° 0.9 mm 1 mps 751 mmHg 75%
    14:00 +26°C° 0.5 mm 1 mps 751 mmHg 75%
    15:00 +26°C° 0.5 mm 1 mps 750 mmHg 75%
    16:00 +26°C° 0.5 mm 1 mps 750 mmHg 75%
    17:00 +25°C° 0.1 mm 1 mps 750 mmHg 78%
    18:00 +23°C° 0.1 mm 1 mps 751 mmHg 82%
    19:00 +22°C° 0.1 mm 1 mps 751 mmHg 85%
    20:00 +21°C° 0 mm 1 mps 751 mmHg 86%
    21:00 +20°C° 0 mm 1 mps 751 mmHg 87%
    22:00 +20°C° 0 mm 1 mps 752 mmHg 87%
    23:00 +19°C° 0 mm 1 mps 752 mmHg 87%

    10 Junio, Miércoles

    Tiempo Temperatura Precipitaciones Viento Presión Humedad
    00:00 +19°C° 0 mm 1 mps 751 mmHg 87%
    01:00 +19°C° 0 mm 1 mps 751 mmHg 87%
    02:00 +19°C° 0 mm 1 mps 751 mmHg 87%
    03:00 +18°C° 0 mm 1 mps 751 mmHg 87%
    04:00 +17°C° 0 mm 2 mps 751 mmHg 87%
    05:00 +20°C° 0.1 mm 1 mps 751 mmHg 84%
    06:00 +22°C° 0.1 mm 1 mps 751 mmHg 81%
    07:00 +23°C° 0.1 mm 1 mps 752 mmHg 77%
    08:00 +24°C° 0.5 mm 1 mps 752 mmHg 77%
    09:00 +25°C° 0.5 mm 1 mps 751 mmHg 77%
    10:00 +25°C° 0.5 mm 2 mps 751 mmHg 77%
    11:00 +25°C° 0.7 mm 2 mps 751 mmHg 76%
    12:00 +26°C° 0.7 mm 1 mps 751 mmHg 75%
    13:00 +26°C° 0.7 mm 1 mps 751 mmHg 74%
    14:00 +26°C° 0.5 mm 1 mps 751 mmHg 74%
    15:00 +25°C° 0.5 mm 1 mps 751 mmHg 75%
    16:00 +25°C° 0.5 mm 1 mps 751 mmHg 75%
    17:00 +24°C° 0.1 mm 1 mps 751 mmHg 79%
    18:00 +23°C° 0.1 mm 1 mps 752 mmHg 83%
    19:00 +21°C° 0.1 mm 1 mps 752 mmHg 87%
    20:00 +20°C° 0 mm 1 mps 752 mmHg 88%
    21:00 +20°C° 0 mm 1 mps 753 mmHg 89%
    22:00 +19°C° 0 mm 1 mps 753 mmHg 90%
    23:00 +19°C° 0 mm 1 mps 753 mmHg 90%
    Mostrar más